Voltar ao catálogo

STARLINK-36046

AtivoComunicaçõesVLEO
NORAD 66810·PAYLOAD·🇺🇸 United States

Lançado Dec 1, 2025 de Cape Canaveral Space Force Station

Loading…

Próximas Passagens (próximas 24 horas)

TLE

AtualizadoSource: CelesTrak SupGP

Época: Sep 14, 2026, 21:14 UTC

1 66810C 25278V   26257.88520833 -.00062662  00000+0 -22700-2 0  2577
2 66810  43.0024 126.0520 0001473 271.4678  38.8462 15.27604408    11

Acompanhe STARLINK-36046 em tempo real com AllMySat

Download on the App Store